| time (UTC) | temp F | wind direction | speed MPH | gust MPH | rain 1hr in | rain 24hr in | rain mn in | humidity % | barometer mb |
| 20260903192236 | 77 | 296 | 0.0 | 3.0 | 0.00 | 0.00 | 0.00 | 51 | 1023.7 |
| 20260903191738 | 76 | 291 | 0.0 | 2.0 | 0.00 | 0.00 | 0.00 | 52 | 1023.5 |
| 20260903191608 | 78 | 289 | 0.0 | 3.0 | 0.00 | 0.00 | 0.00 | 50 | 1023.6 |
| 20260903191237 | 78 | 289 | 0.0 | 4.0 | 0.00 | 0.00 | 0.00 | 50 | 1023.6 |
| 20260903191004 | 78 | 289 | 0.0 | 4.0 | 0.00 | 0.00 | 0.00 | 50 | 1023.5 |
| 20260903190607 | 78 | 287 | 0.0 | 4.0 | 0.00 | 0.00 | 0.00 | 50 | 1023.5 |
| 20260903190235 | 78 | 279 | 1.0 | 4.0 | 0.00 | 0.00 | 0.00 | 50 | 1023.5 |
| 20260903185736 | 78 | 273 | 1.0 | 4.0 | 0.00 | 0.00 | 0.00 | 50 | 1023.4 |
| 20260903185606 | 78 | 274 | 0.0 | 4.0 | 0.00 | 0.00 | 0.00 | 50 | 1023.5 |
| 20260903185235 | 78 | 279 | 0.0 | 3.0 | 0.00 | 0.00 | 0.00 | 50 | 1023.4 |
| 20260903184742 | 78 | 287 | 1.0 | 3.0 | 0.00 | 0.00 | 0.00 | 49 | 1023.4 |
| 20260903184727 | 78 | 289 | 1.0 | 3.0 | 0.00 | 0.00 | 0.00 | 49 | 1023.4 |
| 20260903183737 | 78 | 286 | 1.0 | 3.0 | 0.00 | 0.00 | 0.00 | 50 | 1023.4 |
| 20260903183606 | 78 | 280 | 1.0 | 3.0 | 0.00 | 0.00 | 0.00 | 50 | 1023.3 |
| 20260903183236 | 77 | 263 | 0.0 | 3.0 | 0.00 | 0.00 | 0.00 | 51 | 1023.4 |
| 20260903182735 | 77 | 253 | 0.0 | 1.0 | 0.00 | 0.00 | 0.00 | 52 | 1023.3 |
| 20260903182607 | 77 | 252 | 0.0 | 1.0 | 0.00 | 0.00 | 0.00 | 52 | 1023.3 |
| 20260903182233 | 77 | 250 | 0.0 | 1.0 | 0.00 | 0.00 | 0.00 | 53 | 1023.2 |
| 20260903182003 | 78 | 248 | 0.0 | 1.0 | 0.00 | 0.00 | 0.00 | 52 | 1023.1 |
| 20260903181608 | 78 | 248 | 0.0 | 1.0 | 0.00 | 0.00 | 0.00 | 52 | 1023.1 |
| 20260903181232 | 78 | 248 | 0.0 | 1.0 | 0.00 | 0.00 | 0.00 | 53 | 1023.2 |
| 20260903180731 | 79 | 250 | 0.0 | 0.0 | 0.00 | 0.00 | 0.00 | 51 | 1023.2 |
| 20260903180608 | 79 | 250 | 0.0 | 0.0 | 0.00 | 0.00 | 0.00 | 51 | 1023.2 |
| 20260903180232 | 79 | 251 | 0.0 | 0.0 | 0.00 | 0.00 | 0.00 | 50 | 1023.1 |
| 20260903175731 | 80 | 220 | 0.0 | 0.0 | 0.00 | 0.00 | 0.00 | 50 | 1023.2 |
| 20260903175607 | 80 | 210 | 0.0 | 0.0 | 0.00 | 0.00 | 0.00 | 50 | 1023.2 |
| 20260903175231 | 81 | 189 | 0.0 | 0.0 | 0.00 | 0.00 | 0.00 | 47 | 1023.1 |
| 20260903174731 | 81 | 190 | 0.0 | 0.0 | 0.00 | 0.00 | 0.00 | 47 | 1023.0 |
| 20260903174607 | 81 | 195 | 0.0 | 0.0 | 0.00 | 0.00 | 0.00 | 47 | 1023.0 |
| 20260903174232 | 81 | 210 | 0.0 | 0.0 | 0.00 | 0.00 | 0.00 | 47 | 1023.0 |
| 20260903173731 | 82 | 233 | 0.0 | 0.0 | 0.00 | 0.00 | 0.00 | 46 | 1023.0 |
| 20260903173608 | 82 | 240 | 0.0 | 0.0 | 0.00 | 0.00 | 0.00 | 46 | 1022.9 |
| 20260903173232 | 82 | 258 | 0.0 | 0.0 | 0.00 | 0.00 | 0.00 | 46 | 1023.1 |
| 20260903172733 | 84 | 278 | 0.0 | 0.0 | 0.00 | 0.00 | 0.00 | 41 | 1023.0 |
| 20260903172606 | 84 | 278 | 0.0 | 0.0 | 0.00 | 0.00 | 0.00 | 41 | 1023.0 |
| 20260903172230 | 84 | 278 | 0.0 | 1.0 | 0.00 | 0.00 | 0.00 | 41 | 1023.0 |
| 20260903171729 | 84 | 279 | 0.0 | 4.0 | 0.00 | 0.00 | 0.00 | 41 | 1022.9 |
| 20260903171606 | 84 | 279 | 0.0 | 4.0 | 0.00 | 0.00 | 0.00 | 41 | 1022.8 |
| 20260903171227 | 84 | 280 | 0.0 | 5.0 | 0.00 | 0.00 | 0.00 | 41 | 1022.8 |
| 20260903170726 | 84 | 300 | 1.0 | 5.0 | 0.00 | 0.00 | 0.00 | 41 | 1022.8 |
| 20260903170608 | 84 | 307 | 2.0 | 5.0 | 0.00 | 0.00 | 0.00 | 41 | 1022.8 |
| 20260903170225 | 85 | 331 | 2.0 | 7.0 | 0.00 | 0.00 | 0.00 | 41 | 1022.8 |
| 20260903165726 | 85 | 329 | 2.0 | 8.0 | 0.00 | 0.00 | 0.00 | 40 | 1022.7 |
| 20260903165607 | 85 | 324 | 2.0 | 8.0 | 0.00 | 0.00 | 0.00 | 40 | 1022.7 |
| 20260903165229 | 85 | 298 | 2.0 | 8.0 | 0.00 | 0.00 | 0.00 | 39 | 1022.7 |
| 20260903164727 | 86 | 235 | 2.0 | 8.0 | 0.00 | 0.00 | 0.00 | 39 | 1022.7 |
| 20260903164607 | 86 | 231 | 2.0 | 8.0 | 0.00 | 0.00 | 0.00 | 39 | 1022.7 |
| 20260903164224 | 86 | 222 | 2.0 | 8.0 | 0.00 | 0.00 | 0.00 | 39 | 1022.6 |
| 20260903163956 | 86 | 277 | 3.0 | 7.0 | 0.00 | 0.00 | 0.00 | 39 | 1022.6 |
| 20260903163607 | 86 | 276 | 3.0 | 7.0 | 0.00 | 0.00 | 0.00 | 39 | 1022.6 |
| 20260903163222 | 86 | 287 | 3.0 | 7.0 | 0.00 | 0.00 | 0.00 | 38 | 1022.6 |
| 20260903162721 | 87 | 299 | 2.0 | 6.0 | 0.00 | 0.00 | 0.00 | 38 | 1022.5 |
| 20260903162607 | 87 | 309 | 2.0 | 6.0 | 0.00 | 0.00 | 0.00 | 38 | 1022.7 |
| 20260903162222 | 87 | 308 | 1.0 | 5.0 | 0.00 | 0.00 | 0.00 | 37 | 1022.6 |
| 20260903161720 | 87 | 265 | 2.0 | 5.0 | 0.00 | 0.00 | 0.00 | 37 | 1022.6 |
| 20260903161607 | 87 | 223 | 2.0 | 5.0 | 0.00 | 0.00 | 0.00 | 37 | 1022.6 |
| 20260903161232 | 87 | 95 | 2.0 | 8.0 | 0.00 | 0.00 | 0.00 | 37 | 1022.6 |
| 20260903161223 | 87 | 111 | 2.0 | 8.0 | 0.00 | 0.00 | 0.00 | 37 | 1022.6 |
| 20260903160607 | 87 | 77 | 2.0 | 8.0 | 0.00 | 0.00 | 0.00 | 38 | 1022.6 |
| 20260903160221 | 87 | 265 | 2.0 | 8.0 | 0.00 | 0.00 | 0.00 | 38 | 1022.7 |
| 20260903160000 | 87 | 172 | 2.0 | 8.0 | 0.00 | 0.00 | 0.00 | 38 | 1022.8 |
| 20260903155607 | 87 | 167 | 2.0 | 8.0 | 0.00 | 0.00 | 0.00 | 37 | 1022.7 |
| 20260903155221 | 87 | 175 | 2.0 | 6.0 | 0.00 | 0.00 | 0.00 | 38 | 1022.8 |
| 20260903154721 | 87 | 175 | 2.0 | 6.0 | 0.00 | 0.00 | 0.00 | 38 | 1022.9 |
| 20260903154610 | 87 | 178 | 2.0 | 6.0 | 0.00 | 0.00 | 0.00 | 38 | 1022.8 |
| 20260903154222 | 88 | 140 | 2.0 | 6.0 | 0.00 | 0.00 | 0.00 | 38 | 1022.8 |
| 20260903154000 | 88 | 160 | 2.0 | 8.0 | 0.00 | 0.00 | 0.00 | 38 | 1022.9 |
| 20260903153607 | 88 | 50 | 1.0 | 8.0 | 0.00 | 0.00 | 0.00 | 38 | 1022.9 |
| 20260903153221 | 88 | 276 | 2.0 | 8.0 | 0.00 | 0.00 | 0.00 | 37 | 1022.7 |
| 20260903152721 | 89 | 276 | 2.0 | 8.0 | 0.00 | 0.00 | 0.00 | 37 | 1022.8 |
| 20260903152607 | 89 | 265 | 2.0 | 8.0 | 0.00 | 0.00 | 0.00 | 37 | 1022.8 |
| 20260903152221 | 89 | 255 | 2.0 | 8.0 | 0.00 | 0.00 | 0.00 | 37 | 1022.8 |
| 20260903151720 | 90 | 245 | 1.0 | 6.0 | 0.00 | 0.00 | 0.00 | 36 | 1022.9 |
| 20260903151607 | 90 | 239 | 1.0 | 6.0 | 0.00 | 0.00 | 0.00 | 36 | 1022.9 |
| 20260903151219 | 90 | 258 | 2.0 | 6.0 | 0.00 | 0.00 | 0.00 | 37 | 1022.8 |
| 20260903150719 | 89 | 254 | 2.0 | 7.0 | 0.00 | 0.00 | 0.00 | 37 | 1022.8 |
| 20260903150606 | 89 | 247 | 2.0 | 7.0 | 0.00 | 0.00 | 0.00 | 37 | 1022.8 |
| 20260903150221 | 89 | 265 | 1.0 | 7.0 | 0.00 | 0.00 | 0.00 | 37 | 1022.7 |
| 20260903145720 | 89 | 321 | 2.0 | 7.0 | 0.00 | 0.00 | 0.00 | 38 | 1022.7 |
| 20260903145607 | 89 | 340 | 2.0 | 8.0 | 0.00 | 0.00 | 0.00 | 38 | 1022.7 |
| 20260903145219 | 89 | 312 | 2.0 | 8.0 | 0.00 | 0.00 | 0.00 | 38 | 1022.8 |
| 20260903144953 | 89 | 325 | 2.0 | 8.0 | 0.00 | 0.00 | 0.00 | 38 | 1022.8 |
| 20260903144606 | 89 | 296 | 2.0 | 8.0 | 0.00 | 0.00 | 0.00 | 38 | 1022.9 |
| 20260903144452 | 89 | 36 | 2.0 | 8.0 | 0.00 | 0.00 | 0.00 | 38 | 1023.0 |
| 20260903143715 | 89 | 39 | 2.0 | 8.0 | 0.00 | 0.00 | 0.00 | 38 | 1023.0 |
| 20260903143609 | 89 | 33 | 2.0 | 8.0 | 0.00 | 0.00 | 0.00 | 38 | 1023.0 |
| 20260903143214 | 89 | 305 | 2.0 | 8.0 | 0.00 | 0.00 | 0.00 | 38 | 1023.0 |
| 20260903142714 | 89 | 331 | 3.0 | 9.0 | 0.00 | 0.00 | 0.00 | 38 | 1023.0 |
| 20260903142607 | 89 | 322 | 3.0 | 9.0 | 0.00 | 0.00 | 0.00 | 38 | 1022.9 |
| 20260903142218 | 89 | 7 | 2.0 | 9.0 | 0.00 | 0.00 | 0.00 | 38 | 1023.0 |
| 20260903141712 | 89 | 94 | 2.0 | 12.0 | 0.00 | 0.00 | 0.00 | 38 | 1023.0 |
| 20260903141607 | 89 | 5 | 2.0 | 12.0 | 0.00 | 0.00 | 0.00 | 38 | 1023.0 |
| 20260903141441 | 89 | 316 | 2.0 | 12.0 | 0.00 | 0.00 | 0.00 | 38 | 1023.0 |
| 20260903140712 | 89 | 0 | 2.0 | 12.0 | 0.00 | 0.00 | 0.00 | 38 | 1023.0 |
| 20260903140607 | 89 | 34 | 2.0 | 12.0 | 0.00 | 0.00 | 0.00 | 38 | 1023.0 |
| 20260903140211 | 89 | 156 | 3.0 | 12.0 | 0.00 | 0.00 | 0.00 | 38 | 1023.0 |
| 20260903135709 | 89 | 226 | 3.0 | 9.0 | 0.00 | 0.00 | 0.00 | 38 | 1023.0 |
| 20260903135607 | 89 | 245 | 3.0 | 9.0 | 0.00 | 0.00 | 0.00 | 38 | 1023.1 |
| 20260903135210 | 89 | 224 | 2.0 | 9.0 | 0.00 | 0.00 | 0.00 | 38 | 1023.2 |
| 20260903134710 | 89 | 321 | 2.0 | 9.0 | 0.00 | 0.00 | 0.00 | 38 | 1023.1 |
| 20260903134606 | 89 | 298 | 2.0 | 9.0 | 0.00 | 0.00 | 0.00 | 38 | 1023.1 |
| 20260903134437 | 89 | 323 | 2.0 | 12.0 | 0.00 | 0.00 | 0.00 | 37 | 1023.1 |
| 20260903133706 | 88 | 313 | 2.0 | 12.0 | 0.00 | 0.00 | 0.00 | 37 | 1023.0 |
| 20260903133607 | 88 | 309 | 2.0 | 12.0 | 0.00 | 0.00 | 0.00 | 37 | 1023.1 |
| 20260903133206 | 88 | 306 | 2.0 | 12.0 | 0.00 | 0.00 | 0.00 | 37 | 1023.0 |
| 20260903132942 | 88 | 227 | 4.0 | 12.0 | 0.00 | 0.00 | 0.00 | 37 | 1023.0 |
| 20260903132607 | 88 | 239 | 4.0 | 12.0 | 0.00 | 0.00 | 0.00 | 37 | 1023.0 |
| 20260903132433 | 88 | 225 | 4.0 | 12.0 | 0.00 | 0.00 | 0.00 | 37 | 1023.0 |
| 20260903131941 | 88 | 228 | 3.0 | 10.0 | 0.00 | 0.00 | 0.00 | 37 | 1023.1 |
| 20260903131607 | 89 | 226 | 3.0 | 10.0 | 0.00 | 0.00 | 0.00 | 37 | 1022.9 |
| 20260903131206 | 89 | 214 | 2.0 | 8.0 | 0.00 | 0.00 | 0.00 | 37 | 1023.2 |
| 20260903130704 | 88 | 215 | 3.0 | 8.0 | 0.00 | 0.00 | 0.00 | 37 | 1023.1 |
| 20260903130609 | 88 | 216 | 3.0 | 8.0 | 0.00 | 0.00 | 0.00 | 37 | 1023.1 |
| 20260903130438 | 88 | 226 | 4.0 | 8.0 | 0.00 | 0.00 | 0.00 | 38 | 1023.0 |
| 20260903125701 | 88 | 243 | 3.0 | 10.0 | 0.00 | 0.00 | 0.00 | 37 | 1023.1 |
| 20260903125608 | 88 | 240 | 3.0 | 10.0 | 0.00 | 0.00 | 0.00 | 37 | 1023.2 |
| 20260903125202 | 88 | 238 | 3.0 | 10.0 | 0.00 | 0.00 | 0.00 | 37 | 1023.1 |
| 20260903124702 | 88 | 254 | 3.0 | 10.0 | 0.00 | 0.00 | 0.00 | 35 | 1023.1 |
| 20260903124607 | 88 | 258 | 3.0 | 10.0 | 0.00 | 0.00 | 0.00 | 35 | 1023.0 |
| 20260903124202 | 88 | 229 | 4.0 | 10.0 | 0.00 | 0.00 | 0.00 | 36 | 1022.8 |
| 20260903123701 | 88 | 219 | 4.0 | 10.0 | 0.00 | 0.00 | 0.00 | 35 | 1022.7 |
| 20260903123607 | 88 | 220 | 4.0 | 10.0 | 0.00 | 0.00 | 0.00 | 35 | 1022.7 |
| 20260903123201 | 87 | 238 | 3.0 | 10.0 | 0.00 | 0.00 | 0.00 | 35 | 1022.9 |
| 20260903122701 | 88 | 307 | 3.0 | 10.0 | 0.00 | 0.00 | 0.00 | 34 | 1022.8 |
| 20260903122607 | 88 | 304 | 3.0 | 9.0 | 0.00 | 0.00 | 0.00 | 34 | 1023.0 |
| 20260903122201 | 87 | 309 | 3.0 | 9.0 | 0.00 | 0.00 | 0.00 | 34 | 1023.0 |
| 20260903121701 | 88 | 276 | 3.0 | 9.0 | 0.00 | 0.00 | 0.00 | 33 | 1023.0 |
| 20260903121607 | 88 | 282 | 3.0 | 9.0 | 0.00 | 0.00 | 0.00 | 33 | 1023.0 |
| 20260903121200 | 88 | 296 | 2.0 | 10.0 | 0.00 | 0.00 | 0.00 | 34 | 1023.1 |
| 20260903120657 | 88 | 272 | 3.0 | 10.0 | 0.00 | 0.00 | 0.00 | 34 | 1022.9 |
| 20260903120606 | 88 | 260 | 3.0 | 10.0 | 0.00 | 0.00 | 0.00 | 33 | 1022.9 |
| 20260903120158 | 87 | 220 | 4.0 | 12.0 | 0.00 | 0.00 | 0.00 | 33 | 1022.9 |
| 20260903115658 | 86 | 200 | 4.0 | 12.0 | 0.00 | 0.00 | 0.00 | 33 | 1023.0 |
| 20260903115607 | 86 | 192 | 4.0 | 12.0 | 0.00 | 0.00 | 0.00 | 34 | 1023.1 |
| 20260903115158 | 86 | 133 | 5.0 | 12.0 | 0.00 | 0.00 | 0.00 | 35 | 1023.0 |
| 20260903114658 | 85 | 104 | 4.0 | 12.0 | 0.00 | 0.00 | 0.00 | 33 | 1023.1 |
| 20260903114608 | 85 | 85 | 4.0 | 12.0 | 0.00 | 0.00 | 0.00 | 34 | 1023.2 |
| 20260903114156 | 86 | 171 | 3.0 | 9.0 | 0.00 | 0.00 | 0.00 | 34 | 1022.9 |
| 20260903113656 | 85 | 151 | 3.0 | 12.0 | 0.00 | 0.00 | 0.00 | 35 | 1022.8 |
| 20260903113608 | 85 | 151 | 3.0 | 12.0 | 0.00 | 0.00 | 0.00 | 35 | 1022.8 |
| 20260903113156 | 85 | 135 | 3.0 | 12.0 | 0.00 | 0.00 | 0.00 | 34 | 1022.9 |
| 20260903112656 | 85 | 344 | 4.0 | 12.0 | 0.00 | 0.00 | 0.00 | 33 | 1023.0 |
| 20260903112609 | 85 | 343 | 4.0 | 12.0 | 0.00 | 0.00 | 0.00 | 33 | 1023.0 |
| 20260903112156 | 84 | 31 | 4.0 | 12.0 | 0.00 | 0.00 | 0.00 | 34 | 1022.9 |
| 20260903111656 | 84 | 61 | 4.0 | 9.0 | 0.00 | 0.00 | 0.00 | 36 | 1023.0 |
| 20260903111606 | 84 | 56 | 4.0 | 9.0 | 0.00 | 0.00 | 0.00 | 36 | 1023.0 |
| 20260903111156 | 84 | 55 | 4.0 | 9.0 | 0.00 | 0.00 | 0.00 | 33 | 1023.0 |
| 20260903110651 | 84 | 84 | 3.0 | 8.0 | 0.00 | 0.00 | 0.00 | 37 | 1023.1 |
| 20260903110606 | 84 | 91 | 3.0 | 8.0 | 0.00 | 0.00 | 0.00 | 38 | 1023.1 |
| 20260903110151 | 84 | 120 | 3.0 | 8.0 | 0.00 | 0.00 | 0.00 | 35 | 1023.3 |
| 20260903105651 | 84 | 162 | 2.0 | 10.0 | 0.00 | 0.00 | 0.00 | 35 | 1023.3 |
| 20260903105607 | 84 | 164 | 2.0 | 10.0 | 0.00 | 0.00 | 0.00 | 35 | 1023.3 |
| 20260903105200 | 83 | 109 | 3.0 | 10.0 | 0.00 | 0.00 | 0.00 | 39 | 1023.4 |
| 20260903105155 | 83 | 135 | 3.0 | 10.0 | 0.00 | 0.00 | 0.00 | 37 | 1023.3 |
| 20260903104607 | 83 | 124 | 3.0 | 10.0 | 0.00 | 0.00 | 0.00 | 39 | 1023.4 |
| 20260903104151 | 83 | 45 | 2.0 | 10.0 | 0.00 | 0.00 | 0.00 | 40 | 1023.5 |
| 20260903103651 | 82 | 64 | 2.0 | 6.0 | 0.00 | 0.00 | 0.00 | 40 | 1023.5 |
| 20260903103607 | 82 | 54 | 2.0 | 6.0 | 0.00 | 0.00 | 0.00 | 40 | 1023.5 |
| 20260903103151 | 82 | 57 | 3.0 | 6.0 | 0.00 | 0.00 | 0.00 | 41 | 1023.6 |
| 20260903102928 | 82 | 7 | 2.0 | 7.0 | 0.00 | 0.00 | 0.00 | 43 | 1023.7 |
| 20260903102608 | 82 | 2 | 2.0 | 7.0 | 0.00 | 0.00 | 0.00 | 43 | 1023.7 |
| 20260903102152 | 82 | 16 | 2.0 | 9.0 | 0.00 | 0.00 | 0.00 | 43 | 1023.8 |
| 20260903101651 | 81 | 66 | 3.0 | 9.0 | 0.00 | 0.00 | 0.00 | 43 | 1023.7 |
| 20260903101607 | 81 | 63 | 4.0 | 9.0 | 0.00 | 0.00 | 0.00 | 39 | 1023.7 |
| 20260903101151 | 81 | 57 | 3.0 | 9.0 | 0.00 | 0.00 | 0.00 | 39 | 1023.7 |
| 20260903100650 | 82 | 345 | 3.0 | 9.0 | 0.00 | 0.00 | 0.00 | 39 | 1023.8 |
| 20260903100607 | 82 | 335 | 3.0 | 9.0 | 0.00 | 0.00 | 0.00 | 39 | 1023.8 |
| 20260903100148 | 81 | 315 | 3.0 | 8.0 | 0.00 | 0.00 | 0.00 | 37 | 1023.8 |
| 20260903095915 | 81 | 96 | 2.0 | 6.0 | 0.00 | 0.00 | 0.00 | 35 | 1023.8 |
| 20260903095606 | 81 | 86 | 2.0 | 6.0 | 0.00 | 0.00 | 0.00 | 35 | 1023.8 |
| 20260903095420 | 81 | 92 | 2.0 | 6.0 | 0.00 | 0.00 | 0.00 | 32 | 1023.8 |
| 20260903094646 | 81 | 87 | 2.0 | 5.0 | 0.00 | 0.00 | 0.00 | 29 | 1024.1 |
| 20260903094607 | 80 | 87 | 2.0 | 5.0 | 0.00 | 0.00 | 0.00 | 26 | 1024.1 |
| 20260903094414 | 80 | 97 | 2.0 | 5.0 | 0.00 | 0.00 | 0.00 | 23 | 1024.2 |
| 20260903093645 | 80 | 98 | 2.0 | 5.0 | 0.00 | 0.00 | 0.00 | 24 | 1024.4 |
| 20260903093604 | 80 | 100 | 2.0 | 5.0 | 0.00 | 0.00 | 0.00 | 24 | 1024.4 |
| 20260903093146 | 80 | 113 | 2.0 | 5.0 | 0.00 | 0.00 | 0.00 | 25 | 1024.2 |
| 20260903092645 | 80 | 156 | 2.0 | 4.0 | 0.00 | 0.00 | 0.00 | 28 | 1024.3 |
| 20260903092605 | 80 | 158 | 1.0 | 4.0 | 0.00 | 0.00 | 0.00 | 28 | 1024.3 |
| 20260903092147 | 80 | 146 | 0.0 | 4.0 | 0.00 | 0.00 | 0.00 | 28 | 1024.3 |
| 20260903091646 | 79 | 107 | 1.0 | 4.0 | 0.00 | 0.00 | 0.00 | 28 | 1024.3 |
| 20260903091611 | 79 | 105 | 1.0 | 4.0 | 0.00 | 0.00 | 0.00 | 28 | 1024.4 |
| 20260903091145 | 80 | 104 | 1.0 | 5.0 | 0.00 | 0.00 | 0.00 | 28 | 1024.4 |
| 20260903090646 | 79 | 97 | 1.0 | 5.0 | 0.00 | 0.00 | 0.00 | 27 | 1024.3 |
| 20260903090605 | 79 | 100 | 1.0 | 5.0 | 0.00 | 0.00 | 0.00 | 27 | 1024.3 |
| 20260903090146 | 79 | 85 | 2.0 | 5.0 | 0.00 | 0.00 | 0.00 | 27 | 1024.3 |
| 20260903085915 | 79 | 213 | 2.0 | 5.0 | 0.00 | 0.00 | 0.00 | 27 | 1024.3 |
| 20260903085602 | 79 | 210 | 2.0 | 5.0 | 0.00 | 0.00 | 0.00 | 28 | 1024.3 |
| 20260903085148 | 79 | 203 | 2.0 | 4.0 | 0.00 | 0.00 | 0.00 | 28 | 1024.2 |
| 20260903084646 | 79 | 201 | 1.0 | 4.0 | 0.00 | 0.00 | 0.00 | 27 | 1024.1 |
| 20260903084603 | 79 | 202 | 1.0 | 4.0 | 0.00 | 0.00 | 0.00 | 27 | 1024.1 |
| 20260903084146 | 80 | 221 | 1.0 | 4.0 | 0.00 | 0.00 | 0.00 | 25 | 1024.3 |
| 20260903083646 | 80 | 260 | 0.0 | 4.0 | 0.00 | 0.00 | 0.00 | 25 | 1024.3 |
| 20260903083602 | 80 | 265 | 0.0 | 4.0 | 0.00 | 0.00 | 0.00 | 25 | 1024.3 |
| 20260903083146 | 79 | 261 | 0.0 | 4.0 | 0.00 | 0.00 | 0.00 | 22 | 1024.3 |
| 20260903082646 | 78 | 238 | 1.0 | 5.0 | 0.00 | 0.00 | 0.00 | 23 | 1024.2 |
| 20260903082604 | 78 | 236 | 2.0 | 5.0 | 0.00 | 0.00 | 0.00 | 24 | 1024.1 |
| 20260903082146 | 78 | 239 | 2.0 | 6.0 | 0.00 | 0.00 | 0.00 | 25 | 1023.9 |
| 20260903081646 | 77 | 240 | 2.0 | 9.0 | 0.00 | 0.00 | 0.00 | 24 | 1023.8 |
| 20260903081603 | 77 | 237 | 2.0 | 9.0 | 0.00 | 0.00 | 0.00 | 27 | 1023.8 |
| 20260903081146 | 77 | 232 | 2.0 | 9.0 | 0.00 | 0.00 | 0.00 | 26 | 1023.8 |
| 20260903080646 | 76 | 230 | 3.0 | 9.0 | 0.00 | 0.00 | 0.00 | 27 | 1023.9 |
| 20260903080602 | 76 | 231 | 3.0 | 9.0 | 0.00 | 0.00 | 0.00 | 27 | 1023.9 |
| 20260903080146 | 76 | 232 | 4.0 | 9.0 | 0.00 | 0.00 | 0.00 | 26 | 1023.8 |
| 20260903075646 | 75 | 236 | 5.0 | 9.0 | 0.00 | 0.00 | 0.00 | 26 | 1023.7 |
| 20260903075602 | 75 | 238 | 4.0 | 9.0 | 0.00 | 0.00 | 0.00 | 26 | 1023.7 |
| 20260903075146 | 75 | 239 | 6.0 | 10.0 | 0.00 | 0.00 | 0.00 | 26 | 1023.7 |
| 20260903074647 | 75 | 254 | 5.0 | 10.0 | 0.00 | 0.00 | 0.00 | 26 | 1023.7 |
| 20260903074602 | 75 | 252 | 5.0 | 10.0 | 0.00 | 0.00 | 0.00 | 26 | 1023.7 |
| 20260903074146 | 74 | 253 | 5.0 | 10.0 | 0.00 | 0.00 | 0.00 | 26 | 1023.5 |
| 20260903073914 | 74 | 238 | 5.0 | 10.0 | 0.00 | 0.00 | 0.00 | 26 | 1023.5 |
| 20260903073601 | 74 | 237 | 5.0 | 10.0 | 0.00 | 0.00 | 0.00 | 26 | 1023.5 |
| 20260903073144 | 74 | 234 | 5.0 | 10.0 | 0.00 | 0.00 | 0.00 | 26 | 1023.5 |
| 20260903072644 | 74 | 226 | 4.0 | 9.0 | 0.00 | 0.00 | 0.00 | 26 | 1023.4 |
| 20260903072601 | 74 | 228 | 4.0 | 9.0 | 0.00 | 0.00 | 0.00 | 26 | 1023.4 |
| 20260903072143 | 73 | 231 | 4.0 | 9.0 | 0.00 | 0.00 | 0.00 | 28 | 1023.5 |
| 20260903071644 | 73 | 241 | 5.0 | 16.0 | 0.00 | 0.00 | 0.00 | 27 | 1023.6 |
| 20260903071600 | 73 | 241 | 5.0 | 16.0 | 0.00 | 0.00 | 0.00 | 27 | 1023.6 |
| 20260903071144 | 73 | 246 | 5.0 | 16.0 | 0.00 | 0.00 | 0.00 | 27 | 1023.6 |
| 20260903070644 | 73 | 251 | 5.0 | 16.0 | 0.00 | 0.00 | 0.00 | 28 | 1023.6 |
| 20260903070601 | 72 | 253 | 5.0 | 16.0 | 0.00 | 0.00 | 0.00 | 28 | 1023.5 |
| 20260903070144 | 72 | 255 | 5.0 | 16.0 | 0.00 | 0.00 | 0.00 | 27 | 1023.5 |
| 20260903065644 | 71 | 253 | 5.0 | 12.0 | 0.00 | 0.00 | 0.00 | 28 | 1023.5 |
| 20260903065601 | 71 | 252 | 5.0 | 12.0 | 0.00 | 0.00 | 0.00 | 28 | 1023.5 |
| 20260903065143 | 71 | 262 | 4.0 | 12.0 | 0.00 | 0.00 | 0.00 | 29 | 1023.5 |
| 20260903064644 | 70 | 262 | 2.0 | 7.0 | 0.00 | 0.00 | 0.00 | 34 | 1023.4 |
| 20260903064603 | 70 | 261 | 2.0 | 7.0 | 0.00 | 0.00 | 0.00 | 34 | 1023.4 |
| 20260903064143 | 69 | 256 | 3.0 | 7.0 | 0.00 | 0.00 | 0.00 | 34 | 1023.4 |
| 20260903063644 | 69 | 265 | 3.0 | 11.0 | 0.00 | 0.00 | 0.00 | 35 | 1023.3 |
| 20260903063600 | 69 | 267 | 3.0 | 11.0 | 0.00 | 0.00 | 0.00 | 35 | 1023.3 |
| 20260903063143 | 69 | 268 | 3.0 | 12.0 | 0.00 | 0.00 | 0.00 | 34 | 1023.4 |
| 20260903062644 | 69 | 267 | 3.0 | 12.0 | 0.00 | 0.00 | 0.00 | 33 | 1023.3 |
| 20260903062601 | 69 | 267 | 3.0 | 12.0 | 0.00 | 0.00 | 0.00 | 33 | 1023.3 |
| 20260903062143 | 69 | 270 | 4.0 | 12.0 | 0.00 | 0.00 | 0.00 | 31 | 1023.3 |
| 20260903061644 | 69 | 279 | 2.0 | 12.0 | 0.00 | 0.00 | 0.00 | 31 | 1023.2 |
| 20260903061601 | 69 | 282 | 2.0 | 12.0 | 0.00 | 0.00 | 0.00 | 31 | 1023.1 |
| 20260903061144 | 68 | 284 | 1.0 | 8.0 | 0.00 | 0.00 | 0.00 | 35 | 1023.0 |
| 20260903060644 | 69 | 273 | 2.0 | 9.0 | 0.00 | 0.00 | 0.00 | 32 | 1023.2 |
| 20260903060601 | 69 | 268 | 2.0 | 9.0 | 0.00 | 0.00 | 0.00 | 32 | 1023.2 |
| 20260903060144 | 69 | 259 | 3.0 | 10.0 | 0.00 | 0.00 | 0.00 | 30 | 1023.3 |
| 20260903055913 | 69 | 263 | 3.0 | 10.0 | 0.00 | 0.00 | 0.00 | 29 | 1023.3 |
| 20260903055600 | 69 | 264 | 4.0 | 10.0 | 0.00 | 0.00 | 0.00 | 29 | 1023.3 |
| 20260903055142 | 69 | 264 | 4.0 | 10.0 | 0.00 | 0.00 | 0.00 | 30 | 1023.3 |
| 20260903054914 | 69 | 271 | 4.0 | 10.0 | 0.00 | 0.00 | 0.00 | 29 | 1023.3 |
| 20260903054558 | 69 | 273 | 4.0 | 10.0 | 0.00 | 0.00 | 0.00 | 29 | 1023.3 |
| 20260903054140 | 69 | 284 | 3.0 | 8.0 | 0.00 | 0.00 | 0.00 | 30 | 1023.2 |
| 20260903053640 | 69 | 284 | 3.0 | 12.0 | 0.00 | 0.00 | 0.00 | 31 | 1023.0 |
| 20260903053558 | 69 | 283 | 3.0 | 12.0 | 0.00 | 0.00 | 0.00 | 31 | 1023.0 |
| 20260903053140 | 69 | 283 | 3.0 | 12.0 | 0.00 | 0.00 | 0.00 | 30 | 1023.0 |
| 20260903052639 | 69 | 284 | 3.0 | 12.0 | 0.00 | 0.00 | 0.00 | 30 | 1023.1 |
| 20260903052558 | 69 | 284 | 3.0 | 12.0 | 0.00 | 0.00 | 0.00 | 30 | 1023.1 |
| 20260903052137 | 69 | 281 | 3.0 | 12.0 | 0.00 | 0.00 | 0.00 | 33 | 1023.0 |
| 20260903051635 | 69 | 293 | 3.0 | 8.0 | 0.00 | 0.00 | 0.00 | 32 | 1023.1 |
| 20260903051558 | 69 | 297 | 2.0 | 8.0 | 0.00 | 0.00 | 0.00 | 31 | 1023.1 |
| 20260903051136 | 69 | 297 | 3.0 | 10.0 | 0.00 | 0.00 | 0.00 | 31 | 1023.0 |
| 20260903050636 | 69 | 293 | 2.0 | 10.0 | 0.00 | 0.00 | 0.00 | 31 | 1022.9 |
| 20260903050558 | 69 | 291 | 2.0 | 10.0 | 0.00 | 0.00 | 0.00 | 31 | 1022.9 |
| 20260903050137 | 69 | 285 | 3.0 | 10.0 | 0.00 | 0.00 | 0.00 | 31 | 1022.9 |
| 20260903045636 | 69 | 272 | 4.0 | 10.0 | 0.00 | 0.00 | 0.00 | 30 | 1022.9 |
| 20260903045554 | 69 | 271 | 4.0 | 10.0 | 0.00 | 0.00 | 0.00 | 30 | 1022.9 |
| 20260903045136 | 69 | 279 | 3.0 | 10.0 | 0.00 | 0.00 | 0.00 | 31 | 1022.8 |
| 20260903044636 | 68 | 288 | 1.0 | 6.0 | 0.00 | 0.00 | 0.00 | 33 | 1022.7 |
| 20260903044555 | 68 | 289 | 1.0 | 5.0 | 0.00 | 0.00 | 0.00 | 33 | 1022.7 |
| 20260903044136 | 68 | 292 | 1.0 | 4.0 | 0.00 | 0.00 | 0.00 | 34 | 1022.7 |
| 20260903043636 | 68 | 300 | 1.0 | 4.0 | 0.00 | 0.00 | 0.00 | 33 | 1022.6 |
| 20260903043555 | 68 | 301 | 1.0 | 4.0 | 0.00 | 0.00 | 0.00 | 33 | 1022.6 |
| 20260903043136 | 68 | 318 | 1.0 | 4.0 | 0.00 | 0.00 | 0.00 | 33 | 1022.6 |
| 20260903042636 | 68 | 331 | 1.0 | 3.0 | 0.00 | 0.00 | 0.00 | 34 | 1022.5 |
| 20260903042553 | 68 | 330 | 1.0 | 3.0 | 0.00 | 0.00 | 0.00 | 33 | 1022.5 |
| 20260903042136 | 68 | 328 | 1.0 | 4.0 | 0.00 | 0.00 | 0.00 | 34 | 1022.6 |
| 20260903041913 | 68 | 341 | 1.0 | 4.0 | 0.00 | 0.00 | 0.00 | 35 | 1022.6 |
| 20260903041552 | 68 | 343 | 1.0 | 5.0 | 0.00 | 0.00 | 0.00 | 34 | 1022.6 |
| 20260903041137 | 68 | 335 | 1.0 | 5.0 | 0.00 | 0.00 | 0.00 | 34 | 1022.7 |
| 20260903040637 | 68 | 323 | 1.0 | 5.0 | 0.00 | 0.00 | 0.00 | 35 | 1022.6 |
| 20260903040553 | 68 | 321 | 1.0 | 5.0 | 0.00 | 0.00 | 0.00 | 35 | 1022.6 |
| 20260903040141 | 68 | 313 | 1.0 | 5.0 | 0.00 | 0.00 | 0.00 | 36 | 1022.6 |
| 20260903035638 | 68 | 300 | 2.0 | 5.0 | 0.00 | 0.00 | 0.00 | 35 | 1022.7 |
| 20260903035551 | 68 | 300 | 2.0 | 5.0 | 0.00 | 0.00 | 0.00 | 36 | 1022.7 |
| 20260903035137 | 68 | 305 | 1.0 | 5.0 | 0.00 | 0.00 | 0.00 | 36 | 1022.7 |
| 20260903034635 | 67 | 333 | 1.0 | 4.0 | 0.00 | 0.00 | 0.00 | 37 | 1022.6 |
| 20260903034552 | 67 | 339 | 0.0 | 4.0 | 0.00 | 0.00 | 0.00 | 38 | 1022.6 |
| 20260903034137 | 67 | 2 | 0.0 | 1.0 | 0.00 | 0.00 | 0.00 | 38 | 1023.1 |
| 20260903033635 | 67 | 8 | 0.0 | 2.0 | 0.00 | 0.00 | 0.00 | 39 | 1023.0 |
| 20260903033552 | 67 | 8 | 0.0 | 2.0 | 0.00 | 0.00 | 0.00 | 39 | 1023.0 |
| 20260903033138 | 68 | 22 | 0.0 | 3.0 | 0.00 | 0.00 | 0.00 | 39 | 1023.1 |
| 20260903032553 | 68 | 47 | 0.0 | 3.0 | 0.00 | 0.00 | 0.00 | 39 | 1023.2 |
| 20260903032137 | 68 | 35 | 1.0 | 3.0 | 0.00 | 0.00 | 0.00 | 38 | 1023.1 |
| 20260903031909 | 69 | 25 | 0.0 | 3.0 | 0.00 | 0.00 | 0.00 | 38 | 1023.1 |
| 20260903031552 | 69 | 23 | 0.0 | 3.0 | 0.00 | 0.00 | 0.00 | 38 | 1023.1 |
| 20260903031135 | 69 | 38 | 0.0 | 3.0 | 0.00 | 0.00 | 0.00 | 36 | 1023.3 |
| 20260903030636 | 70 | 13 | 0.0 | 8.0 | 0.00 | 0.00 | 0.00 | 34 | 1023.2 |
| 20260903030553 | 70 | 6 | 0.0 | 8.0 | 0.00 | 0.00 | 0.00 | 35 | 1023.2 |
| 20260903030137 | 71 | 331 | 1.0 | 8.0 | 0.00 | 0.00 | 0.00 | 33 | 1023.2 |
| 20260903025636 | 72 | 310 | 1.0 | 8.0 | 0.00 | 0.00 | 0.00 | 31 | 1023.1 |
| 20260903025550 | 72 | 307 | 2.0 | 8.0 | 0.00 | 0.00 | 0.00 | 31 | 1023.1 |
| 20260903025404 | 72 | 311 | 2.0 | 8.0 | 0.00 | 0.00 | 0.00 | 31 | 1023.2 |
| 20260903024636 | 72 | 310 | 2.0 | 9.0 | 0.00 | 0.00 | 0.00 | 32 | 1023.2 |
| 20260903024550 | 72 | 308 | 2.0 | 9.0 | 0.00 | 0.00 | 0.00 | 31 | 1023.2 |
| 20260903024136 | 72 | 295 | 2.0 | 9.0 | 0.00 | 0.00 | 0.00 | 32 | 1023.2 |
| 20260903023906 | 73 | 296 | 3.0 | 9.0 | 0.00 | 0.00 | 0.00 | 32 | 1023.1 |
| 20260903023551 | 73 | 300 | 3.0 | 9.0 | 0.00 | 0.00 | 0.00 | 32 | 1023.1 |
| 20260903023136 | 73 | 295 | 3.0 | 9.0 | 0.00 | 0.00 | 0.00 | 32 | 1023.1 |
| 20260903022635 | 73 | 297 | 2.0 | 9.0 | 0.00 | 0.00 | 0.00 | 32 | 1023.1 |
| 20260903022549 | 73 | 294 | 3.0 | 12.0 | 0.00 | 0.00 | 0.00 | 32 | 1023.1 |
| 20260903022135 | 73 | 295 | 3.0 | 12.0 | 0.00 | 0.00 | 0.00 | 32 | 1023.1 |
| 20260903021635 | 73 | 286 | 4.0 | 12.0 | 0.00 | 0.00 | 0.00 | 32 | 1023.1 |
| 20260903021549 | 73 | 287 | 4.0 | 12.0 | 0.00 | 0.00 | 0.00 | 32 | 1023.1 |
| 20260903021406 | 73 | 285 | 4.0 | 12.0 | 0.00 | 0.00 | 0.00 | 33 | 1023.1 |
| 20260903020903 | 73 | 296 | 3.0 | 12.0 | 0.00 | 0.00 | 0.00 | 33 | 1023.0 |
| 20260903020548 | 73 | 295 | 3.0 | 10.0 | 0.00 | 0.00 | 0.00 | 33 | 1023.0 |
| 20260903020135 | 73 | 296 | 4.0 | 10.0 | 0.00 | 0.00 | 0.00 | 33 | 1023.1 |
| 20260903015635 | 73 | 284 | 4.0 | 10.0 | 0.00 | 0.00 | 0.00 | 33 | 1023.2 |
| 20260903015547 | 73 | 285 | 4.0 | 10.0 | 0.00 | 0.00 | 0.00 | 33 | 1023.2 |
| 20260903015415 | 73 | 284 | 4.0 | 10.0 | 0.00 | 0.00 | 0.00 | 33 | 1023.2 |
| 20260903014635 | 73 | 293 | 4.0 | 11.0 | 0.00 | 0.00 | 0.00 | 34 | 1023.1 |
| 20260903014548 | 73 | 295 | 4.0 | 11.0 | 0.00 | 0.00 | 0.00 | 34 | 1023.1 |
| 20260903014136 | 73 | 282 | 3.0 | 11.0 | 0.00 | 0.00 | 0.00 | 34 | 1023.1 |
| 20260903013636 | 73 | 278 | 4.0 | 14.0 | 0.00 | 0.00 | 0.00 | 34 | 1023.1 |
| 20260903013546 | 73 | 277 | 4.0 | 14.0 | 0.00 | 0.00 | 0.00 | 34 | 1023.1 |
| 20260903013409 | 73 | 284 | 4.0 | 14.0 | 0.00 | 0.00 | 0.00 | 33 | 1023.3 |
| 20260903012636 | 73 | 283 | 5.0 | 14.0 | 0.00 | 0.00 | 0.00 | 34 | 1023.2 |
| 20260903012547 | 73 | 283 | 5.0 | 14.0 | 0.00 | 0.00 | 0.00 | 34 | 1023.2 |
| 20260903012136 | 73 | 282 | 5.0 | 14.0 | 0.00 | 0.00 | 0.00 | 34 | 1023.1 |
| 20260903011636 | 73 | 284 | 4.0 | 11.0 | 0.00 | 0.00 | 0.00 | 35 | 1023.1 |
| 20260903011546 | 73 | 281 | 4.0 | 11.0 | 0.00 | 0.00 | 0.00 | 35 | 1023.1 |
| 20260903011134 | 73 | 287 | 4.0 | 12.0 | 0.00 | 0.00 | 0.00 | 35 | 1023.2 |
| 20260903010633 | 74 | 288 | 4.0 | 12.0 | 0.00 | 0.00 | 0.00 | 34 | 1023.2 |
| 20260903010547 | 74 | 291 | 4.0 | 12.0 | 0.00 | 0.00 | 0.00 | 34 | 1023.2 |
| 20260903010133 | 73 | 281 | 4.0 | 12.0 | 0.00 | 0.00 | 0.00 | 35 | 1023.1 |
| 20260903005634 | 74 | 270 | 5.0 | 12.0 | 0.00 | 0.00 | 0.00 | 35 | 1023.2 |
| 20260903005547 | 73 | 269 | 5.0 | 12.0 | 0.00 | 0.00 | 0.00 | 35 | 1023.1 |
| 20260903005133 | 74 | 276 | 4.0 | 11.0 | 0.00 | 0.00 | 0.00 | 35 | 1023.1 |
| 20260903004634 | 73 | 284 | 4.0 | 10.0 | 0.00 | 0.00 | 0.00 | 36 | 1023.1 |
| 20260903004547 | 73 | 284 | 4.0 | 10.0 | 0.00 | 0.00 | 0.00 | 36 | 1023.0 |
| 20260903004131 | 73 | 285 | 3.0 | 10.0 | 0.00 | 0.00 | 0.00 | 36 | 1023.1 |
| 20260903003631 | 73 | 284 | 3.0 | 10.0 | 0.00 | 0.00 | 0.00 | 37 | 1023.2 |
| 20260903003548 | 73 | 282 | 3.0 | 10.0 | 0.00 | 0.00 | 0.00 | 38 | 1023.2 |
| 20260903003132 | 73 | 288 | 3.0 | 9.0 | 0.00 | 0.00 | 0.00 | 37 | 1023.2 |
| 20260903002909 | 73 | 286 | 2.0 | 9.0 | 0.00 | 0.00 | 0.00 | 37 | 1023.1 |
| 20260903002546 | 73 | 288 | 2.0 | 9.0 | 0.00 | 0.00 | 0.00 | 37 | 1023.1 |
| 20260903002132 | 73 | 279 | 3.0 | 12.0 | 0.00 | 0.00 | 0.00 | 37 | 1023.2 |
| 20260903001631 | 73 | 279 | 4.0 | 12.0 | 0.00 | 0.00 | 0.00 | 37 | 1023.3 |
| 20260903001548 | 73 | 281 | 4.0 | 12.0 | 0.00 | 0.00 | 0.00 | 37 | 1023.3 |
| 20260903001131 | 73 | 281 | 4.0 | 12.0 | 0.00 | 0.00 | 0.00 | 38 | 1023.3 |
| 20260903000631 | 73 | 286 | 4.0 | 12.0 | 0.00 | 0.00 | 0.00 | 39 | 1023.3 |
| 20260903000547 | 73 | 282 | 4.0 | 12.0 | 0.00 | 0.00 | 0.00 | 39 | 1023.3 |
| 20260903000133 | 73 | 285 | 4.0 | 9.0 | 0.00 | 0.00 | 0.00 | 38 | 1023.3 |
| 20260903000129 | 73 | 270 | 4.0 | 9.0 | 0.00 | 0.00 | 0.00 | 39 | 1023.3 |
| 20260902235547 | 73 | 267 | 4.0 | 9.0 | 0.00 | 0.00 | 0.00 | 39 | 1023.3 |
| 20260902235400 | 73 | 261 | 4.0 | 9.0 | 0.00 | 0.00 | 0.00 | 40 | 1023.3 |
| 20260902234629 | 74 | 269 | 4.0 | 9.0 | 0.00 | 0.00 | 0.00 | 38 | 1023.4 |
| 20260902234547 | 74 | 273 | 4.0 | 9.0 | 0.00 | 0.00 | 0.00 | 38 | 1023.4 |
| 20260902234130 | 74 | 275 | 4.0 | 9.0 | 0.00 | 0.00 | 0.00 | 39 | 1023.5 |
| 20260902233627 | 74 | 271 | 4.0 | 9.0 | 0.00 | 0.00 | 0.00 | 38 | 1023.5 |
| 20260902233547 | 74 | 271 | 4.0 | 9.0 | 0.00 | 0.00 | 0.00 | 38 | 1023.5 |
| 20260902233128 | 74 | 274 | 4.0 | 9.0 | 0.00 | 0.00 | 0.00 | 38 | 1023.4 |
| 20260902232628 | 74 | 278 | 3.0 | 9.0 | 0.00 | 0.00 | 0.00 | 38 | 1023.5 |
| 20260902232547 | 74 | 279 | 4.0 | 9.0 | 0.00 | 0.00 | 0.00 | 38 | 1023.5 |
| 20260902232127 | 74 | 277 | 4.0 | 9.0 | 0.00 | 0.00 | 0.00 | 38 | 1023.5 |
| 20260902231627 | 74 | 277 | 3.0 | 8.0 | 0.00 | 0.00 | 0.00 | 39 | 1023.6 |
| 20260902231547 | 73 | 274 | 3.0 | 8.0 | 0.00 | 0.00 | 0.00 | 40 | 1023.5 |
| 20260902231128 | 73 | 272 | 3.0 | 9.0 | 0.00 | 0.00 | 0.00 | 41 | 1023.4 |
| 20260902230627 | 73 | 271 | 3.0 | 9.0 | 0.00 | 0.00 | 0.00 | 41 | 1023.3 |
| 20260902230547 | 73 | 274 | 3.0 | 9.0 | 0.00 | 0.00 | 0.00 | 41 | 1023.3 |
| 20260902230126 | 73 | 276 | 3.0 | 9.0 | 0.00 | 0.00 | 0.00 | 41 | 1023.3 |
| 20260902225856 | 73 | 281 | 2.0 | 9.0 | 0.00 | 0.00 | 0.00 | 41 | 1023.2 |
| 20260902225547 | 73 | 279 | 2.0 | 9.0 | 0.00 | 0.00 | 0.00 | 42 | 1023.2 |
| 20260902225128 | 73 | 280 | 2.0 | 5.0 | 0.00 | 0.00 | 0.00 | 43 | 1023.5 |
| 20260902224626 | 72 | 279 | 2.0 | 5.0 | 0.00 | 0.00 | 0.00 | 45 | 1023.3 |
| 20260902224546 | 73 | 278 | 2.0 | 5.0 | 0.00 | 0.00 | 0.00 | 44 | 1023.3 |
| 20260902224122 | 73 | 273 | 2.0 | 5.0 | 0.00 | 0.00 | 0.00 | 44 | 1023.2 |
| 20260902223622 | 73 | 271 | 2.0 | 6.0 | 0.00 | 0.00 | 0.00 | 44 | 1023.2 |
| 20260902223547 | 73 | 272 | 2.0 | 6.0 | 0.00 | 0.00 | 0.00 | 44 | 1023.2 |
| 20260902223121 | 73 | 272 | 2.0 | 7.0 | 0.00 | 0.00 | 0.00 | 44 | 1023.2 |
| 20260902222622 | 74 | 269 | 2.0 | 8.0 | 0.00 | 0.00 | 0.00 | 45 | 1023.2 |
| 20260902222548 | 74 | 271 | 2.0 | 8.0 | 0.00 | 0.00 | 0.00 | 45 | 1023.2 |
| 20260902222122 | 74 | 272 | 3.0 | 8.0 | 0.00 | 0.00 | 0.00 | 43 | 1023.4 |
| 20260902221848 | 74 | 265 | 4.0 | 8.0 | 0.00 | 0.00 | 0.00 | 43 | 1023.3 |
| 20260902221546 | 74 | 262 | 4.0 | 8.0 | 0.00 | 0.00 | 0.00 | 43 | 1023.3 |
| 20260902221119 | 74 | 273 | 3.0 | 8.0 | 0.00 | 0.00 | 0.00 | 44 | 1023.4 |
| 20260902220620 | 74 | 283 | 3.0 | 8.0 | 0.00 | 0.00 | 0.00 | 45 | 1023.3 |
| 20260902220548 | 74 | 284 | 3.0 | 8.0 | 0.00 | 0.00 | 0.00 | 45 | 1023.3 |
| 20260902220120 | 74 | 272 | 3.0 | 8.0 | 0.00 | 0.00 | 0.00 | 47 | 1023.3 |
| 20260902215619 | 74 | 278 | 3.0 | 7.0 | 0.00 | 0.00 | 0.00 | 47 | 1023.4 |
| 20260902215547 | 74 | 280 | 3.0 | 7.0 | 0.00 | 0.00 | 0.00 | 47 | 1023.4 |
| 20260902215351 | 75 | 289 | 3.0 | 7.0 | 0.00 | 0.00 | 0.00 | 46 | 1023.3 |
| 20260902214619 | 74 | 285 | 2.0 | 7.0 | 0.00 | 0.00 | 0.00 | 49 | 1023.2 |
| 20260902214547 | 74 | 283 | 2.0 | 7.0 | 0.00 | 0.00 | 0.00 | 49 | 1023.2 |
| 20260902214115 | 74 | 290 | 2.0 | 7.0 | 0.00 | 0.00 | 0.00 | 50 | 1023.1 |
| 20260902213616 | 74 | 296 | 2.0 | 5.0 | 0.00 | 0.00 | 0.00 | 51 | 1023.1 |
| 20260902213546 | 74 | 295 | 2.0 | 5.0 | 0.00 | 0.00 | 0.00 | 51 | 1023.1 |
| 20260902213115 | 73 | 282 | 2.0 | 5.0 | 0.00 | 0.00 | 0.00 | 53 | 1023.0 |
| 20260902212615 | 73 | 286 | 2.0 | 5.0 | 0.00 | 0.00 | 0.00 | 55 | 1022.9 |
| 20260902212545 | 73 | 287 | 2.0 | 5.0 | 0.00 | 0.00 | 0.00 | 55 | 1022.9 |
| 20260902212115 | 73 | 291 | 2.0 | 5.0 | 0.00 | 0.00 | 0.00 | 57 | 1022.9 |
| 20260902211617 | 73 | 290 | 2.0 | 4.0 | 0.00 | 0.00 | 0.00 | 58 | 1023.0 |
| 20260902211543 | 73 | 289 | 2.0 | 4.0 | 0.00 | 0.00 | 0.00 | 59 | 1023.0 |
| 20260902211115 | 73 | 286 | 1.0 | 4.0 | 0.00 | 0.00 | 0.00 | 59 | 1022.9 |
| 20260902210616 | 72 | 278 | 1.0 | 4.0 | 0.00 | 0.00 | 0.00 | 59 | 1022.9 |
| 20260902210542 | 72 | 278 | 1.0 | 4.0 | 0.00 | 0.00 | 0.00 | 60 | 1022.9 |
| 20260902210115 | 72 | 266 | 1.0 | 6.0 | 0.00 | 0.00 | 0.00 | 63 | 1023.0 |
| 20260902205615 | 73 | 267 | 1.0 | 6.0 | 0.00 | 0.00 | 0.00 | 61 | 1022.9 |
| 20260902205542 | 73 | 266 | 1.0 | 6.0 | 0.00 | 0.00 | 0.00 | 61 | 1022.9 |
| 20260902205352 | 73 | 274 | 2.0 | 6.0 | 0.00 | 0.00 | 0.00 | 61 | 1022.9 |
| 20260902204616 | 74 | 272 | 2.0 | 6.0 | 0.00 | 0.00 | 0.00 | 60 | 1023.0 |
| 20260902204546 | 74 | 275 | 2.0 | 6.0 | 0.00 | 0.00 | 0.00 | 59 | 1023.0 |
| 20260902204116 | 73 | 276 | 2.0 | 6.0 | 0.00 | 0.00 | 0.00 | 61 | 1022.9 |
| 20260902203616 | 74 | 273 | 3.0 | 11.0 | 0.00 | 0.00 | 0.00 | 60 | 1022.8 |
| 20260902203542 | 74 | 272 | 3.0 | 11.0 | 0.00 | 0.00 | 0.00 | 60 | 1022.8 |
| 20260902203115 | 74 | 269 | 2.0 | 11.0 | 0.00 | 0.00 | 0.00 | 60 | 1023.0 |
| 20260902202615 | 74 | 265 | 3.0 | 11.0 | 0.00 | 0.00 | 0.00 | 59 | 1023.0 |
| 20260902202542 | 75 | 264 | 3.0 | 11.0 | 0.00 | 0.00 | 0.00 | 59 | 1023.0 |
| 20260902202116 | 74 | 269 | 4.0 | 11.0 | 0.00 | 0.00 | 0.00 | 59 | 1023.1 |
| 20260902201616 | 74 | 277 | 2.0 | 6.0 | 0.00 | 0.00 | 0.00 | 60 | 1023.0 |
| 20260902201542 | 74 | 279 | 2.0 | 6.0 | 0.00 | 0.00 | 0.00 | 62 | 1023.0 |
| 20260902201343 | 73 | 278 | 2.0 | 7.0 | 0.00 | 0.00 | 0.00 | 62 | 1022.9 |
| 20260902200617 | 73 | 276 | 2.0 | 7.0 | 0.00 | 0.00 | 0.00 | 63 | 1022.8 |
| 20260902200542 | 73 | 276 | 2.0 | 7.0 | 0.00 | 0.00 | 0.00 | 63 | 1022.8 |
| 20260902200350 | 74 | 279 | 3.0 | 7.0 | 0.00 | 0.00 | 0.00 | 62 | 1022.8 |
| 20260902195619 | 74 | 283 | 3.0 | 7.0 | 0.00 | 0.00 | 0.00 | 61 | 1022.8 |
| 20260902195613 | 74 | 283 | 3.0 | 7.0 | 0.00 | 0.00 | 0.00 | 61 | 1022.8 |
| 20260902194616 | 75 | 280 | 3.0 | 7.0 | 0.00 | 0.00 | 0.00 | 60 | 1022.9 |
| 20260902194540 | 75 | 280 | 3.0 | 7.0 | 0.00 | 0.00 | 0.00 | 60 | 1022.9 |
| 20260902194115 | 75 | 273 | 2.0 | 7.0 | 0.00 | 0.00 | 0.00 | 61 | 1022.8 |
| 20260902193616 | 75 | 269 | 2.0 | 7.0 | 0.00 | 0.00 | 0.00 | 60 | 1022.7 |
| 20260902193541 | 75 | 269 | 2.0 | 7.0 | 0.00 | 0.00 | 0.00 | 60 | 1022.8 |
| 20260902193116 | 75 | 280 | 2.0 | 7.0 | 0.00 | 0.00 | 0.00 | 60 | 1022.7 |
| 20260902192616 | 75 | 286 | 1.0 | 3.0 | 0.00 | 0.00 | 0.00 | 61 | 1022.6 |
| 20260902192541 | 75 | 285 | 1.0 | 4.0 | 0.00 | 0.00 | 0.00 | 61 | 1022.6 |